STARLINK-34589

Last updated on Sat Aug 02 2025 00:02:05 GMT+0000 (Coordinated Universal Time)

1 64747U 25144Z 25213.58335648 .00126576 00000+0 18529-2 0 9992 2 64747 53.1599 124.4127 0000893 173.2694 357.6442 15.54693756 6092
UTC large
Height (km)
Speed (km/s)
/
Latitude / Longitude
Inclination (degrees)
Orbital Period (minutes)
Azimuth
Elevation
Range (km)
Doppler Factor

Next 0 passes for location: London (51.5072 / 0.1276)

Sorry there are no passes over London.